Regional Weather Roundup
Issued by NWS

Home | Current Version | Previous Version | Graphics & Text | Print | Product List | Glossary On
Versions: 1 2 3 4 5 6 7 8 9 10 11 12 13 14 15 16 17 18 19 20 21 22 23 24 25 26 27 28 29 30 31 32 33 34 35 36 37 38 39 40 41 42 43 44 45 46 47 48 49 50
000
ASUS45 KABQ 301601
RWRNM
WEATHER ROUNDUP FOR NEW MEXICO
NATIONAL WEATHER SERVICE ALBUQUERQUE NM
1000 AM MDT SAT AUG 30 2014

NOTE: "FAIR" MEANS FEW OR NO CLOUDS BELOW 12,000 FEET AGL WITH NO
       SIGNIFICANT WEATHER OR OBSTRUCTIONS TO VISION.

      THIS PRODUCT IS RELEASED AS TWO VERSIONS.  ONE VERSION NEAR
      THE TOP OF THE HOUR CONTAINING PRELIMINARY DATA FROM ALBUQUERQUE
      AND OTHER STATIONS.  A FINAL VERSION WITH ADDITIONAL DATA IS
      ISSUED ABOUT 10 MINUTES AFTER THE HOUR.

NMZ501-503-504-510>518-301700-
NORTHWEST PLATEAU/NORTHCENTRAL MOUNTAINS

CITY           SKY/WX    TMP DP  RH WIND       PRES   REMARKS
FARMINGTON     SUNNY     69  43  38 E8        30.17F
LOS ALAMOS     SUNNY     67  42  40 SE6       30.32S
SANTA FE       SUNNY     72  43  35 S6        30.25S
ANGEL FIRE     FAIR      58  44  59 CALM      30.38S

$$
NMZ402-403-502-505>509-301700-
WESTCENTRAL MOUNTAINS/SOUTHWEST MOUNTAINS

CITY           SKY/WX    TMP DP  RH WIND       PRES   REMARKS
GALLUP         SUNNY     68  35  29 CALM      30.25S
SILVER CITY    SUNNY     81  41  24 SE6       30.21R

$$
NMZ407-409-411-412-301700-
SOUTHERN DESERTS

CITY           SKY/WX    TMP DP  RH WIND       PRES   REMARKS
LORDSBURG      FAIR      81  48  32 SE3       30.11R
DEMING         SUNNY     81  47  30 CALM      30.11S
LAS CRUCES     SUNNY     84  47  27 SE8       30.14R
HOLLOMAN AFB   SUNNY     82  51  33 W3        30.10
ALAMOGORDO     SUNNY     81  50  34 W6        30.13R
T OR C         SUNNY     78  49  35 CALM      30.15R

$$
NMZ519>523-301700-
CENTRAL VALLEYS/CENTRAL HIGHLANDS

CITY           SKY/WX    TMP DP  RH WIND       PRES   REMARKS
ALBUQUERQUE    PTSUNNY   74  42  31 CALM      30.20S
DOUBLE EAGLE   MOSUNNY   72  45  37 NE5       30.23S
CLINES CORNERS SUNNY     72  45  37 SW16      30.29R
BELEN          FAIR      73  43  34 CALM      30.19S
SOCORRO        FAIR      74  46  37 N3        30.16S

$$
NMZ524>526-539-540-301700-
SOUTHCENTRAL MOUNTAINS

CITY           SKY/WX    TMP DP  RH WIND       PRES   REMARKS
RUIDOSO        NOT AVBL

$$
NMZ527>531-301700-
NORTHEAST HIGHLANDS/NORTHEAST PLAINS

CITY           SKY/WX    TMP DP  RH WIND       PRES   REMARKS
LAS VEGAS      SUNNY     69  42  37 S7        30.29S
RATON          SUNNY     67  44  43 CALM      30.23S
CLAYTON        MOSUNNY   75  49  39 SW12      30.15F

$$
NMZ532>537-301700-
EASTCENTRAL PLAINS

CITY           SKY/WX    TMP DP  RH WIND       PRES   REMARKS
TUCUMCARI      SUNNY     80  59  48 VRB3      30.11S
CANNON AFB     SUNNY     80  60  50 SW8       30.14
CLOVIS AIRPORT   N/A     81  59  47 SW9G17    30.16S

$$
NMZ028-029-538-301700-
SOUTHEAST PLAINS

CITY           SKY/WX    TMP DP  RH WIND       PRES   REMARKS
ROSWELL        SUNNY     80  58  46 VRB5      30.09S
CARLSBAD       SUNNY     83  62  49 S3        30.06F
HOBBS          SUNNY     82  63  51 S6        30.11R


$$



USA.gov is the U.S. government's official web portal to all federal, state and local government web resources and services.